EW3836 Weather Reports


Display with metric or nautical units.
time (UTC)temp
F
wind
direction
speed
MPH
gust
MPH
rain 1hr
in
rain 24hr
in
rain mn
in
humidity
%
barometer
mb
20260505121540 56 199 0.0 0.0 0.00 0.00 0.00 68 1005.7
20260505120045 56 228 0.0 0.0 0.00 0.00 0.00 68 1005.5
20260505114544 56 224 0.0 0.0 0.00 0.00 0.00 67 1005.4
20260505113031 56 202 0.0 0.0 0.00 0.00 0.00 67 1005.3
20260505111528 57 155 0.0 0.0 0.00 0.00 0.00 66 1005.2
20260505101533 58 233 0.0 0.0 0.00 0.00 0.00 63 1004.8
20260505100020 58 214 0.0 0.0 0.00 0.00 0.00 64 1004.6
20260505094530 58 214 0.0 0.0 0.00 0.00 0.00 64 1004.6
20260505093016 58 173 0.0 0.0 0.00 0.00 0.00 64 1004.5
20260505091515 58 188 0.0 0.0 0.00 0.00 0.00 65 1004.5
20260505090019 58 198 0.0 0.0 0.00 0.00 0.00 64 1004.5
20260505084511 58 196 0.0 0.0 0.00 0.00 0.00 63 1004.4
20260505083015 58 207 0.0 0.0 0.00 0.00 0.00 61 1004.5
20260505081503 59 205 0.0 0.0 0.00 0.00 0.00 57 1004.6
20260505074555 64 284 0.0 0.0 0.00 0.00 0.00 45 1004.3
20260505073057 62 119 0.0 0.0 0.00 0.00 0.00 46 1004.1
20260505071558 63 119 0.0 0.0 0.00 0.00 0.00 46 1003.9
20260505070045 62 119 0.0 0.0 0.00 0.00 0.00 47 1003.8
20260505064548 63 119 0.0 0.0 0.00 0.00 0.00 48 1003.7
20260505063043 63 119 0.0 0.0 0.00 0.00 0.00 47 1003.6
20260505061547 63 119 0.0 0.0 0.00 0.00 0.00 48 1003.7
20260505060050 62 119 0.0 0.0 0.00 0.00 0.00 50 1003.6
20260505054542 62 119 0.0 0.0 0.00 0.00 0.00 51 1003.6
20260505053042 62 119 0.0 0.0 0.00 0.00 0.00 50 1003.6
20260505051556 62 119 0.0 0.0 0.00 0.00 0.00 51 1003.6
20260505041539 65 100 0.0 0.0 0.00 0.00 0.00 44 1003.7
20260505040039 66 84 0.0 0.0 0.00 0.00 0.00 44 1003.6
20260505034537 66 44 0.0 0.0 0.00 0.00 0.00 42 1003.4
20260505033038 66 44 0.0 0.0 0.00 0.00 0.00 42 1003.3
20260505031535 67 44 0.0 0.0 0.00 0.00 0.00 41 1003.0
20260505030035 68 44 0.0 0.0 0.00 0.00 0.00 40 1003.0
20260505024534 69 44 0.0 0.0 0.00 0.00 0.00 39 1002.9
20260505023033 72 44 0.0 0.0 0.00 0.00 0.00 38 1002.8
20260505021532 74 44 0.0 0.0 0.00 0.00 0.00 35 1002.9
20260505020031 73 44 0.0 0.0 0.00 0.00 0.00 37 1002.9
20260505014530 74 44 0.0 0.0 0.00 0.00 0.00 35 1003.1
20260505013028 73 26 0.0 0.0 0.00 0.00 0.00 36 1003.2
20260505011527 74 25 0.0 0.0 0.00 0.00 0.00 35 1003.2
20260505010025 73 306 0.0 0.0 0.00 0.00 0.00 38 1003.4
20260505004526 73 11 0.0 0.0 0.00 0.00 0.00 39 1003.4
20260505003021 72 316 0.0 0.0 0.00 0.00 0.00 38 1003.5
20260505001519 73 58 0.0 0.0 0.00 0.00 0.00 37 1003.5
20260505000022 73 308 0.0 0.0 0.00 0.00 0.00 35 1003.6
20260504234511 73 53 0.0 0.0 0.00 0.00 0.00 33 1003.6
20260504233008 72 321 0.0 0.0 0.00 0.00 0.00 34 1003.6
20260504231509 74 360 0.0 0.0 0.00 0.00 0.00 31 1003.7
20260504230004 72 309 0.0 0.0 0.00 0.00 0.00 32 1003.7
20260504224501 71 338 0.0 0.0 0.00 0.00 0.00 41 1003.8
20260504223103 73 320 0.0 0.0 0.00 0.00 0.00 37 1003.9
20260504221602 73 57 0.0 0.0 0.00 0.00 0.00 39 1004.0
20260504220056 74 329 0.0 0.0 0.00 0.00 0.00 41 1004.1
20260504214606 72 324 0.0 0.0 0.00 0.00 0.00 46 1004.3
20260504213056 69 47 0.0 0.0 0.00 0.00 0.00 45 1004.5
20260504211552 71 90 0.0 0.0 0.00 0.00 0.00 45 1004.6
20260504210043 70 19 0.0 0.0 0.00 0.00 0.00 49 1004.6
20260504204541 70 281 0.0 0.0 0.00 0.00 0.00 43 1004.7
20260504203040 70 312 0.0 0.0 0.00 0.00 0.00 42 1004.8
20260504201539 68 325 0.0 0.0 0.00 0.00 0.00 47 1004.9
20260504200033 68 310 0.0 0.0 0.00 0.00 0.00 45 1004.8
20260504194531 67 286 0.0 0.0 0.00 0.00 0.00 48 1004.9
20260504193028 67 323 0.0 0.0 0.00 0.00 0.00 50 1004.9
20260504191526 66 262 0.0 0.0 0.00 0.00 0.00 48 1005.0
20260504190023 66 317 0.0 0.0 0.00 0.00 0.00 48 1005.1
20260504184521 65 322 0.0 0.0 0.00 0.00 0.00 54 1005.1
20260504183019 66 292 0.0 0.0 0.00 0.00 0.00 48 1005.2
20260504181526 65 300 0.0 0.0 0.00 0.00 0.00 49 1005.1
20260504180016 65 302 0.0 0.0 0.00 0.00 0.00 50 1005.2
20260504174515 64 215 0.0 0.0 0.00 0.00 0.00 50 1005.0
20260504173013 65 238 0.0 0.0 0.00 0.00 0.00 49 1005.1
20260504171512 65 298 0.0 0.0 0.00 0.00 0.00 45 1005.1
20260504140111 61 170 0.0 0.0 0.00 0.00 0.00 44 1004.8